Preview of NWS' New Version of Forecast
This preview is not operational and should not be used for support decisions.

Terminal Aerodrome Forecast (TAF)

Issued by National Weather Service (NWS)

                            
000
FTUS42 KKEY 160104 AAA
TAFMTH
TAF AMD
KMTH 160104Z 1601/1624 33010G16KT P6SM FEW030
     FM160400 36009G15KT P6SM FEW030
     FM161400 01009KT P6SM SKC=